Location: Unspecified
(0.0000°N, 0.0000°E)
Time: 23:49:43
(UTC+00:00)

A-11 Canister half - Pass Details

Date: 11 February 2023
Orbit: 1526 x 1682 km, 47.3° (Epoch: 29 March)

Event Time Altitude Azimuth Distance (km) Brightness Sun altitude
Rises 23:16:06 0° 206° (SSW) 4,858 11.9 -70.0°
Enters shadow 23:17:22 - 204° (SSW) 4,476 11.7 -70.2°
Reaches altitude 10° 23:19:31 10° 199° (SSW) 3,849 - -70.6°
Maximum altitude 23:28:37 43° 131° (SE) 2,100 - -72.1°
Drops below altitude 10° 23:37:23 10° 62° (ENE) 3,728 - -73.4°
Sets 23:40:36 0° 56° (NE) 4,694 - -73.8°
